Showing default

COSMOS 1629, 15574

Orbit data source: Space-Track

COSMOS 1629, 15574 is a payload satellite owned by PVO (CIS) in GEO that was launched on Thu, 21 Feb 1985 UTC via a PROTON-K/DM launch vehicle from the Tyuratam Missile And Space Complex (TTMTR). Payload-class satellites include a variety of spacecraft equipped with specific instruments for various scientific and technological missions. These include communications satellites like Starlink; space stations such as the ISS; scientific satellites like the Hubble; Earth observation satellites from companies like Planet Labs, Umbra, and HawkEye 360; GPS; miniature CubeSats for education and research; and military/defense satellites.

Loading next visibility...
Identifier
15574, 1985-016A
Orbit
GEO
Country
Flag of CISCIS
Related business
Manufacturer
NPOL/KOMET
Mission
Defense Early Warn
Bus & Motor
OKO, Unknown motor
Mass
~1,250 kg wet, ~1,150 kg dry
Launch date (UTC)
1985-02-21 (41 years ago)
Launch vehicle
PROTON-K/DM
Launch site
Tyuratam Missile And Space Complex (TTMTR)
Object type
Payload
Rocket body
Debris
Shape & HBR
Cyl + 2 Pan, 2.5 m
Radar Cross Section
6.333 m², Large (>1 m²)

Expand to show TLE details & history
Last TLE update: 2 days ago

TLE from 2 days ago
0 COSMOS 1629
1 15574U 85016A   25259.33827485  .00000103  00000-0  00000-0 0  9999
2 15574   9.6300 316.2613 0007800 254.0424 108.8613  1.00208542147719
Epoch: 2025-09-16T08:07Z
TLE epoch observation values (Epoch: 2025-09-16T08:07:06.947Z)
Latitude
0.4997°
Longitude
-158.08841°
Altitude
35,814.591 km
Speed
3.073 km/s
True Right ascension
21h 16m 52s
True Declination
0° 29' 57"
Sunlit
Object was in daylight at epoch
Visualization orbit readout
Latitude
Unknown
Longitude
Unknown
Altitude
Unknown
Speed
Unknown
Apparent Right ascension
Unknown
Apparent Declination
Unknown
Sunlit
N/A
Visualization observer readout
Local Sidereal Time
15:26:28
Azimuth
Unknown
Elevation
Unknown
Doppler factor
Unknown
Orbital elements
Apogee altitude
35,838.263 km
Perigee altitude
35,772.457 km
Semi-major axis
42,183.497 km
Eccentricity
0.00078
Inclination
9.63°
RAAN
316.2613°
Arg. of periapsis
254.0424°
True anomaly
108.94586°
Mean anomaly
108.8613°
Eccentric anomaly
108.90358°
Mean motion
0.25051 °/min
Orbital period
1,437.05 mins
BSTAR
0
Loading maneuver chart data...
Computing Atmospheric mass density...
Loading historical data...
Loading historical data...
Loading historical data...
Loading historical data...
Loading historical data...
Loading historical data...
Loading historical data...

Documentation

Showing up to 5 results
|